FENGYUN 1C DEB

Satellite information

Favourite Embed

Satellite Type and Status

DEBRISIN ORBIT

Key statistics

Satellite FENGYUN 1C DEB at a glance.

Uptime

9496

Days in orbit

Revolutions

≈ 15.1

Per day

Orbit

SSO

Sun Synchronous Orbit

Inclination

98.8

Latest

Satellite identification and parameters

Extended collection of information and parameters for FENGYUN 1C DEB.

Object identification

Identified? True

Debris? True

Object name: FENGYUN 1C DEB

International designator: 1999-025BRK

Object number (NORAD): 31355

Object ID (CCSDS): 31355

Country: PEOPLES REPUBLIC OF CHINA (PRC)

Current information (Y/N): Y

RCS size: SMALL

Orbital parameters

Period: 95.087 minutes

Inclination: 98.8456 deg

SMA: 6900.939 km

Apoapsis: 546.536 km

Periapsis: 499.072 km

RAAN: 235.8375 deg

Eccentricy: 0.003439

Argument of periapsis: 288.0225 deg

Mean anomaly: 82.1555 deg

Mean motion: 15.1439959 rev/day

Mean motion (dot): 0.00071812 rev/day2

B* drag term: 0.0038246 1/REarth

Two-line elements (TLE)

Creation date: May 8, 2025, 10:56 p.m.

Reference frame: TEME

Reference center: EARTH

Epoch: May 8, 2025, 1:50 p.m. UTC

TLE line 0: 0 FENGYUN 1C DEB

TLE line 1: 1 31355U 99025BRK 25128.57653652 .00071812 00000-0 38246-2 0 9993

TLE line 2: 2 31355 98.8456 235.8375 0034390 288.0225 82.1555 15.14399590958945

Live tracking on map

Real-time ground track for satellite FENGYUN 1C DEB.

In-orbit conjunctions

A list of the most updated potential collisions computed for object FENGYUN 1C DEB.

Target Orbit TCA Probability of collision Miss distance Type
OKEAN 3 LEO 2025-02-19 22:07:21 0.0001110648 819.0 (m) PAYLOAD
SL-8 DEB LEO 2024-11-12 10:22:42 0.0001633062 485.0 (m) DEBRIS

Associated space launch

Chinese polar orbiting meteorological satellite

FENGYUN 1C DEB was lifted into orbit during the mission ‘Long March 4B | Feng Yun 1C’, on board a Long March 4B space rocket.

The launch took place on May 10, 1999, 1:33 a.m. from Launch Complex 7.

For more information about the launch, click the button.

Launch to space Long March 4B | Feng Yun 1C
Long March 4B | Feng Yun 1C

Agency: N/A

Status: Launch Successful

Launch date: May 10, 1999, 1:33 a.m. UTC

Rocket: Long March 4B

Launch pad: Launch Complex 7

Location: Taiyuan Satellite Launch Center, People's Republic of China

...

Latest news about this satellite

There are no fresh news available about this satellite. Check back as we update our databases every day.


Newsletter sign-up

Weekly statistics, charts and insights to help you stay on top of the space industry.